RH
29 29 29 29 29 32 35 38 40 42 45 46 47 47 48 48 47 45 43 42 41 42 42 42 42 42 42 42 41 40 41 42 42 42 40 39 38 35 35 37 40 42 35 26 26 25 24 28 30 28 27 23 20 20 20 19 19 20 21 21 21 21 21
29 30 30 30 31 33 35 38 40 43 45 46 46 46 46 46 45 44 43 43 43 43 44 45 45 45 45 45 45 47 48 49 48 47 44 41 41 39 38 40 43 45 41 33 28 26 26 29 32 29 27 27 24 22 22 22 20 19 20 21 22 22 22
30 30 31 31 32 34 36 39 41 44 46 46 46 46 46 46 47 46 46 46 46 47 48 48 48 48 49 51 53 55 55 54 51 48 46 43 43 44 42 43 45 45 44 39 32 28 28 30 32 29 28 30 28 26 27 26 23 21 21 21 22 23 23
31 31 32 32 34 36 38 41 44 45 46 47 48 48 48 49 50 50 50 50 50 51 52 52 53 55 59 61 61 59 57 55 52 49 48 46 46 47 44 43 43 42 43 42 36 31 30 33 36 33 31 33 31 28 30 30 26 25 23 21 22 23 23
31 33 34 34 36 39 41 44 45 45 46 48 49 50 50 51 51 52 52 52 54 56 57 59 61 64 66 66 63 61 58 55 53 51 50 49 48 46 44 42 42 41 42 43 40 35 33 35 39 36 32 34 34 29 28 29 26 27 26 24 23 23 23
32 33 35 36 38 41 43 44 44 44 45 48 49 50 50 51 51 52 54 56 59 62 64 66 68 69 69 67 64 61 59 56 54 53 51 50 47 45 44 43 43 43 44 44 42 39 37 37 40 39 33 33 37 33 29 27 26 25 26 26 26 25 24
33 33 35 36 38 40 42 43 43 43 45 47 48 49 50 51 53 56 59 63 64 66 68 70 71 70 68 67 65 62 59 56 55 54 51 49 46 45 46 46 47 48 48 48 45 42 41 40 42 43 36 33 37 36 31 30 29 26 25 27 29 29 26
33 33 34 35 37 40 41 42 42 43 45 47 48 50 52 55 59 63 65 66 67 69 71 72 71 70 69 68 66 62 59 57 56 55 51 48 48 49 51 52 53 53 52 52 50 47 45 45 46 45 40 35 38 38 32 31 34 34 30 30 31 31 31
33 34 35 36 38 39 41 41 42 44 46 47 50 53 58 62 66 68 68 69 71 72 74 73 72 72 71 70 68 64 61 59 58 56 53 51 52 55 56 57 57 56 55 54 53 50 49 50 51 49 45 41 41 41 37 35 39 40 35 33 33 31 31
35 36 37 38 38 39 40 41 43 46 48 50 55 60 64 67 70 71 70 71 72 73 73 73 73 73 73 72 70 67 64 60 58 58 57 56 57 59 60 60 58 58 58 57 56 53 52 55 54 50 49 47 43 44 45 43 43 42 39 40 39 32 28
36 37 38 39 39 39 41 42 45 48 51 55 64 71 72 71 71 71 72 72 72 73 73 73 73 74 74 73 71 67 62 59 57 57 57 57 59 60 61 62 61 60 60 61 60 58 58 61 58 52 53 53 49 49 51 50 50 49 45 45 44 37 29
38 38 39 39 40 40 42 45 49 52 56 62 71 76 76 74 73 73 74 74 74 74 75 75 74 74 74 73 70 64 59 58 57 57 58 58 59 60 61 63 64 65 67 67 66 63 61 63 62 59 58 57 54 52 54 56 59 57 52 50 49 43 33
38 38 39 40 41 42 44 49 53 56 61 67 72 76 79 78 76 76 76 76 77 77 77 77 76 75 75 73 66 60 58 59 58 59 60 60 60 62 63 64 66 69 71 72 72 69 63 62 63 62 59 56 55 55 56 60 61 58 57 57 54 46 37
38 39 40 41 42 44 47 52 56 60 65 70 74 79 82 81 78 78 78 79 79 79 79 79 78 77 76 71 62 58 59 61 61 61 60 60 63 65 67 70 72 73 73 73 76 74 67 64 66 65 61 58 61 63 63 63 61 58 60 62 60 57 50
39 40 41 43 44 46 50 54 58 62 68 74 79 83 84 81 79 79 80 80 81 80 79 80 81 80 76 66 59 58 62 63 63 62 62 65 69 72 76 79 79 79 79 79 79 78 72 69 70 71 68 67 70 72 69 69 69 66 67 70 69 67 61
40 42 43 45 47 49 52 56 60 65 73 80 83 83 82 80 80 80 80 81 81 80 81 83 84 83 74 63 57 60 64 65 66 69 73 77 80 82 84 85 83 83 85 85 84 82 79 76 76 77 75 76 80 80 77 78 80 77 76 76 74 71 66
41 43 44 46 49 51 53 57 64 71 79 84 85 83 81 81 81 81 81 82 82 82 83 85 86 82 71 60 57 60 64 68 75 83 87 88 87 87 87 86 86 88 89 88 87 86 85 84 86 86 84 84 87 86 86 88 85 80 80 80 77 72 65
43 46 47 49 51 53 54 59 68 78 83 86 86 84 83 82 82 82 83 82 82 82 83 85 85 81 69 59 58 61 65 74 84 90 90 89 89 90 90 88 89 89 88 86 85 85 84 84 85 86 85 84 82 79 84 89 85 80 80 79 75 72 65
45 48 50 51 52 54 57 62 72 82 86 87 87 86 85 83 83 83 83 83 82 82 84 86 85 80 70 62 62 65 70 80 88 90 89 90 91 91 90 89 88 86 83 83 82 80 78 76 76 78 78 77 75 71 73 79 80 80 80 77 73 71 69
47 49 51 52 53 56 60 67 76 83 87 87 87 88 87 86 84 83 82 82 82 83 85 87 85 80 70 62 63 69 76 84 89 90 91 92 92 91 89 87 86 84 82 82 81 79 78 76 77 79 79 77 75 71 70 73 75 77 79 80 79 76 75
49 51 52 53 55 58 64 71 78 84 88 88 88 88 88 86 84 83 82 83 83 84 86 87 86 80 69 62 65 73 81 86 89 90 92 92 91 92 91 88 85 83 81 80 79 79 80 81 82 84 84 83 81 77 75 75 74 74 77 82 83 81 79
50 52 52 53 55 60 67 74 79 84 88 89 88 88 88 87 86 86 87 85 83 84 87 88 86 79 67 60 65 74 81 86 90 92 93 94 94 93 90 85 81 78 76 74 74 76 77 78 79 80 82 84 84 83 83 81 77 76 78 80 81 80 81
51 52 52 52 55 62 70 76 80 84 87 88 88 88 89 88 88 90 91 88 86 87 88 87 85 77 64 59 66 75 82 88 93 94 94 94 93 88 82 78 76 75 74 74 75 76 76 77 80 82 83 84 86 87 90 90 86 81 79 79 81 83 85
51 53 53 53 56 63 72 77 80 84 87 89 90 91 90 90 90 93 93 91 89 89 87 86 84 78 66 62 69 79 84 87 89 89 88 87 86 81 77 76 77 77 77 77 78 79 79 81 85 88 89 88 88 90 93 96 95 89 82 83 86 88 87
52 53 54 54 56 63 72 77 80 84 89 92 93 92 91 91 92 93 93 91 90 90 89 88 88 82 70 63 67 75 79 81 82 83 85 87 86 82 79 78 79 79 79 79 81 84 86 89 93 95 94 91 90 91 95 98 98 92 86 88 93 91 86
52 53 54 55 56 62 70 77 81 85 91 94 94 92 92 93 95 95 95 94 93 94 94 93 92 87 74 63 63 71 77 80 84 88 91 92 90 87 84 83 83 83 82 83 87 92 96 97 98 98 97 95 95 96 98 99 98 92 89 93 96 93 89
53 54 55 55 56 60 69 78 83 87 93 94 92 91 92 94 95 96 97 96 96 96 96 97 98 94 82 67 63 71 79 84 88 90 91 90 91 90 88 88 88 86 86 88 93 98 100 99 98 99 99 99 99 99 98 96 94 90 90 93 95 93 90
54 55 56 55 56 60 68 77 84 89 93 93 91 92 93 93 93 93 93 93 92 93 94 95 96 95 87 73 63 66 75 83 86 87 88 88 91 92 91 91 91 90 90 93 97 99 98 96 96 96 97 98 98 96 93 91 89 88 88 90 92 90 86
56 56 56 55 55 59 65 74 82 89 92 92 92 92 91 91 91 90 89 88 88 89 91 92 91 92 91 81 67 62 69 78 83 85 88 91 93 94 95 94 93 92 93 95 98 98 96 94 94 94 95 96 96 94 92 92 92 92 91 92 93 91 85
58 57 57 56 56 58 64 71 79 87 91 93 94 93 91 92 93 92 90 89 90 91 92 92 92 93 93 88 75 62 62 72 80 84 88 92 95 96 97 97 95 95 96 97 98 97 95 93 94 94 93 94 93 92 93 95 95 95 95 95 94 93 90
61 60 60 59 59 60 64 70 77 85 90 93 94 93 92 93 95 94 92 92 94 94 93 92 92 93 93 91 82 68 59 64 76 85 89 92 95 96 97 98 97 97 98 98 98 97 95 93 93 93 93 92 91 89 90 92 93 94 96 96 96 96 96
61 62 62 63 62 62 64 69 76 83 90 93 94 93 93 94 96 95 94 95 95 93 92 91 91 91 92 92 88 77 64 60 70 83 90 92 94 96 96 98 98 98 98 99 98 97 96 95 94 93 91 91 90 90 90 91 94 96 97 97 98 98 98
61 61 62 63 64 64 66 69 75 81 88 92 93 93 93 94 95 96 96 96 95 94 93 94 93 93 93 94 92 86 73 62 63 76 88 93 94 95 97 98 99 99 99 100 99 98 98 96 94 90 88 89 91 92 92 93 96 97 96 96 97 97 96
64 63 62 63 64 66 67 71 75 81 87 91 93 93 92 93 96 99 99 98 97 95 95 95 95 95 95 96 95 92 82 69 62 68 83 92 94 95 97 98 100 100 100 100 100 100 99 97 93 87 85 87 90 91 91 93 96 95 94 95 97 97 95
65 66 66 66 66 68 69 72 76 81 84 89 93 95 95 96 99 101 102 100 99 96 93 93 94 95 96 97 97 95 89 78 65 64 76 90 95 96 97 99 100 101 101 100 101 101 100 98 95 89 84 85 87 88 89 92 95 95 95 97 99 100 98
65 67 69 70 70 70 72 73 76 80 83 87 91 94 95 98 100 101 101 101 100 98 95 94 94 95 96 97 98 97 93 85 72 64 71 85 95 97 97 99 101 102 101 101 100 101 101 100 98 94 88 85 87 88 88 90 93 96 98 99 100 101 100